Tracking 33057 objects as of 23-Jan-2026
HD Live streaming from Space Station
objects crossing your sky now

SL-6 R/B(2)

Track SL-6 R/B(2) now!


NORAD ID: 22241
Int'l Code: 1992-081D
Perigee: 3,184.7 km
Apogee: 36,692.6 km
Inclination: 68.7 °
Period: 707.8 minutes
Semi major axis: 26309 km
RCS: 5.1164 m2 (large)
Launch date: November 25, 1992
Source: Commonwealth of Independent States (former USSR) (CIS)
Launch site: PLESETSK MISSILE AND SPACE COMPLEX (PKMTR)

Note: This is a ROCKET BODY
Your satellite tracking list
Your tracking list is empty




NASA's NSSDC Master Catalog

Two Line Element Set (TLE):
1 22241U 92081D   26022.24544299  .00000395  00000-0  00000-0 0  9999
2 22241  68.7208  18.9587 6367995  20.6951 356.3698  2.03437647246356
Source of the keplerian elements: AFSPC